Location: ?????
(42.2640°N, 43.4211°E)
Time: 13:43:01
(UTC+00:00)

Cosmos 1606 Rocket - Pass Details

Date: 07 August 2020
Orbit: 602 x 633 km, 82.5° (Epoch: 20 September)

Event Time Altitude Azimuth Distance (km) Brightness Sun altitude
Rises 01:00:45 0° 180° (S) 2,906 6.7 -11.3°
Reaches altitude 10° 01:02:59 10° 178° (S) 2,006 5.9 -11.0°
Maximum altitude 01:07:24 68° 96° (E) 683 4.0 -10.3°
Drops below altitude 10° 01:11:52 10° 13° (NNE) 2,026 6.9 -9.6°
Sets 01:14:08 0° 11° (N) 2,937 7.7 -9.2°
